Volver al catálogo

STARLINK-37500

ActivoComunicacionesVLEO
NORAD 69453·PAYLOAD·🇺🇸 United States

Lanzado Jun 8, 2026 desde Cape Canaveral Space Force Station

Loading…

Próximos Pases (próximas 24 horas)

TLE

ActualizadoSource: CelesTrak SupGP

Época: Sep 15, 2026, 03:26 UTC

1 69453C 26127L   26258.14354167 -.00043796  00000+0 -12942-2 0  2587
2 69453  53.1587 190.4828 0001054 114.0153 242.9110 15.34407831    11

Sigue STARLINK-37500 en tiempo real con AllMySat

Download on the App Store